�������l�o���
Date,Time,MP-1(��Sv/h),MP-2(��Sv/h),MP-3(��Sv/h),MP-4(��Sv/h),MP-5(��Sv/h),MP-6(��Sv/h),MP-7(��Sv/h),MP-8(��Sv/h),����,����(m/s),���J
2024/02/24,00:00,0.492,0.743,0.468,0.925,0.666,0.303,0.545,0.512,�k�k��,8.4,��
2024/02/24,00:10,0.491,0.744,0.465,0.927,0.666,0.303,0.544,0.512,�k�k��,7.9,��
2024/02/24,00:20,0.493,0.744,0.467,0.925,0.666,0.303,0.545,0.513,�k�k��,7.3,��
2024/02/24,00:30,0.492,0.743,0.468,0.924,0.665,0.303,0.543,0.512,�k�k��,7.2,��
2024/02/24,00:40,0.491,0.742,0.468,0.924,0.665,0.303,0.545,0.511,�k�k��,7.0,��
2024/02/24,00:50,0.491,0.743,0.469,0.927,0.666,0.304,0.545,0.512,�k�k��,6.0,��
2024/02/24,01:00,0.493,0.743,0.466,0.925,0.665,0.303,0.543,0.513,�k�k��,4.5,��
2024/02/24,01:10,0.494,0.742,0.467,0.923,0.665,0.303,0.544,0.511,�k��,4.5,��
2024/02/24,01:20,0.492,0.743,0.467,0.925,0.665,0.303,0.544,0.513,�k��,5.7,��
2024/02/24,01:30,0.492,0.742,0.467,0.926,0.666,0.303,0.545,0.512,�k�k��,5.5,��
2024/02/24,01:40,0.493,0.741,0.467,0.927,0.664,0.303,0.543,0.512,�k��,6.1,��
2024/02/24,01:50,0.491,0.741,0.466,0.926,0.667,0.304,0.544,0.512,�k�k��,7.0,��
2024/02/24,02:00,0.490,0.743,0.468,0.925,0.664,0.303,0.544,0.511,�k�k��,6.9,��
2024/02/24,02:10,0.493,0.742,0.467,0.923,0.664,0.304,0.545,0.512,�k�k��,7.0,��
2024/02/24,02:20,0.492,0.742,0.466,0.925,0.664,0.302,0.545,0.513,�k�k��,6.8,��
2024/02/24,02:30,0.492,0.741,0.466,0.924,0.663,0.303,0.545,0.512,�k�k��,6.3,��
2024/02/24,02:40,0.492,0.740,0.466,0.926,0.666,0.303,0.544,0.511,�k�k��,6.7,��
2024/02/24,02:50,0.493,0.741,0.465,0.925,0.666,0.304,0.544,0.511,�k�k��,5.7,��
2024/02/24,03:00,0.493,0.742,0.465,0.925,0.665,0.303,0.545,0.513,�k��,4.3,��
2024/02/24,03:10,0.490,0.741,0.467,0.924,0.666,0.302,0.545,0.512,�k�k��,3.6,��
2024/02/24,03:20,0.492,0.743,0.466,0.925,0.665,0.303,0.545,0.512,�k��,5.5,��
2024/02/24,03:30,0.492,0.742,0.467,0.926,0.667,0.302,0.544,0.512,�k�k��,6.3,��
2024/02/24,03:40,0.492,0.742,0.468,0.924,0.665,0.301,0.544,0.513,�k�k��,5.2,��
2024/02/24,03:50,0.492,0.741,0.467,0.925,0.665,0.303,0.544,0.513,�k��,4.6,��
2024/02/24,04:00,0.490,0.741,0.465,0.926,0.666,0.302,0.545,0.512,�k��,4.1,��
2024/02/24,04:10,0.490,0.741,0.465,0.927,0.666,0.303,0.544,0.512,�k��,4.4,��
2024/02/24,04:20,0.491,0.740,0.467,0.924,0.664,0.303,0.545,0.513,�k��,4.8,��
2024/02/24,04:30,0.490,0.742,0.468,0.924,0.665,0.302,0.543,0.513,�k��,4.8,��
2024/02/24,04:40,0.491,0.740,0.466,0.925,0.665,0.302,0.546,0.511,�k��,5.4,��
2024/02/24,04:50,0.491,0.741,0.466,0.924,0.665,0.302,0.546,0.513,�k��,6.5,��
2024/02/24,05:00,0.490,0.741,0.466,0.925,0.665,0.304,0.546,0.512,�k��,6.2,��
2024/02/24,05:10,0.490,0.742,0.466,0.926,0.665,0.302,0.545,0.512,�k��,6.7,��
2024/02/24,05:20,0.492,0.742,0.467,0.925,0.664,0.303,0.544,0.512,�k��,6.6,��
2024/02/24,05:30,0.491,0.740,0.465,0.925,0.663,0.302,0.544,0.513,�k�k��,5.8,��
2024/02/24,05:40,0.491,0.742,0.466,0.925,0.665,0.303,0.544,0.513,�k�k��,5.5,��
2024/02/24,05:50,0.492,0.741,0.466,0.927,0.664,0.303,0.544,0.512,�k��,5.3,��
2024/02/24,06:00,0.492,0.741,0.467,0.926,0.663,0.304,0.543,0.512,�k��,5.1,��
2024/02/24,06:10,0.492,0.740,0.466,0.926,0.665,0.303,0.544,0.513,�k��,5.5,��
2024/02/24,06:20,0.491,0.740,0.466,0.926,0.663,0.303,0.544,0.513,�k��,6.3,��
2024/02/24,06:30,0.493,0.740,0.466,0.926,0.665,0.303,0.544,0.512,�k��,6.3,��
2024/02/24,06:40,0.492,0.740,0.466,0.926,0.664,0.301,0.545,0.513,�k��,5.6,��
2024/02/24,06:50,0.493,0.740,0.467,0.925,0.664,0.302,0.544,0.511,�k�k��,5.6,��
2024/02/24,07:00,0.491,0.741,0.466,0.926,0.663,0.303,0.544,0.512,�k�k��,5.8,��
2024/02/24,07:10,0.492,0.741,0.468,0.927,0.664,0.302,0.545,0.512,�k�k��,5.4,��
2024/02/24,07:20,0.492,0.741,0.467,0.926,0.665,0.302,0.544,0.512,�k�k��,6.6,��
2024/02/24,07:30,0.490,0.742,0.468,0.926,0.665,0.302,0.544,0.512,�k�k��,6.8,��
2024/02/24,07:40,0.492,0.742,0.468,0.928,0.664,0.302,0.544,0.511,�k�k��,5.3,��
2024/02/24,07:50,0.492,0.743,0.467,0.926,0.664,0.303,0.546,0.514,�k�k��,4.3,��
2024/02/24,08:00,0.493,0.744,0.467,0.925,0.664,0.302,0.545,0.513,�k,6.1,��
2024/02/24,08:10,0.491,0.743,0.467,0.925,0.665,0.303,0.545,0.512,�k�k��,6.9,��
2024/02/24,08:20,0.492,0.743,0.467,0.928,0.665,0.303,0.546,0.513,�k�k��,7.0,��
2024/02/24,08:30,0.492,0.741,0.466,0.927,0.665,0.302,0.545,0.513,�k�k��,7.0,��
2024/02/24,08:40,0.492,0.744,0.467,0.927,0.664,0.304,0.545,0.514,�k,7.1,��
2024/02/24,08:50,0.492,0.745,0.467,0.926,0.666,0.304,0.545,0.513,�k,6.5,��
2024/02/24,09:00,0.494,0.745,0.467,0.927,0.667,0.303,0.545,0.513,�k�k��,5.9,��
2024/02/24,09:10,0.493,0.743,0.468,0.927,0.668,0.303,0.546,0.512,�k,5.5,��
2024/02/24,09:20,0.493,0.746,0.469,0.928,0.667,0.302,0.545,0.514,�k�k��,5.8,��
2024/02/24,09:30,0.492,0.745,0.469,0.926,0.666,0.304,0.545,0.514,�k,6.5,��
2024/02/24,09:40,0.494,0.747,0.469,0.928,0.667,0.304,0.545,0.514,�k,6.2,��
2024/02/24,09:50,0.494,0.746,0.467,0.926,0.666,0.304,0.544,0.514,�k,6.3,��
2024/02/24,10:00,0.494,0.745,0.468,0.927,0.669,0.303,0.545,0.514,�k,6.3,��
2024/02/24,10:10,0.494,0.746,0.469,0.926,0.668,0.304,0.546,0.514,�k,7.0,��
2024/02/24,10:20,0.495,0.747,0.468,0.929,0.666,0.304,0.546,0.514,�k,6.7,��
2024/02/24,10:30,0.495,0.745,0.468,0.928,0.670,0.304,0.546,0.513,�k,5.6,��
2024/02/24,10:40,0.494,0.747,0.470,0.929,0.670,0.305,0.545,0.513,�k,5.2,��
2024/02/24,10:50,0.494,0.747,0.470,0.929,0.670,0.304,0.546,0.515,�k,6.0,��
2024/02/24,11:00,0.496,0.746,0.471,0.929,0.671,0.305,0.545,0.514,�k�k��,5.5,��
2024/02/24,11:10,0.497,0.750,0.468,0.929,0.670,0.305,0.544,0.512,�k�k��,4.7,��
2024/02/24,11:20,0.494,0.749,0.470,0.929,0.671,0.304,0.544,0.514,�k�k��,5.7,��
2024/02/24,11:30,0.496,0.748,0.470,0.929,0.673,0.305,0.544,0.514,�k�k��,5.4,��
2024/02/24,11:40,0.496,0.747,0.471,0.931,0.672,0.305,0.544,0.515,�k,5.7,��
2024/02/24,11:50,0.496,0.747,0.472,0.931,0.672,0.306,0.545,0.513,�k,5.8,��
2024/02/24,12:00,0.496,0.748,0.472,0.929,0.673,0.305,0.545,0.514,�k�k��,6.4,��
2024/02/24,12:10,0.496,0.747,0.473,0.930,0.672,0.305,0.544,0.514,�k,4.2,��
2024/02/24,12:20,0.496,0.750,0.472,0.932,0.672,0.306,0.546,0.515,��,3.6,��
2024/02/24,12:30,0.498,0.751,0.475,0.933,0.675,0.304,0.546,0.514,���k��,4.2,��
2024/02/24,12:40,0.499,0.751,0.473,0.933,0.672,0.306,0.546,0.515,�k�k��,3.0,��
2024/02/24,12:50,0.497,0.750,0.472,0.930,0.673,0.306,0.546,0.516,���k��,4.9,��
2024/02/24,13:00,0.499,0.752,0.475,0.934,0.672,0.305,0.545,0.515,���k��,3.6,��
2024/02/24,13:10,0.497,0.753,0.474,0.932,0.674,0.306,0.546,0.515,��,4.3,��
2024/02/24,13:20,0.498,0.749,0.473,0.930,0.673,0.305,0.546,0.515,��,4.3,��
2024/02/24,13:30,0.497,0.752,0.473,0.932,0.674,0.305,0.546,0.515,���쐼,3.8,��
2024/02/24,13:40,0.497,0.752,0.473,0.932,0.675,0.306,0.545,0.515,��,4.5,��
2024/02/24,13:50,0.497,0.752,0.474,0.932,0.675,0.307,0.546,0.517,��,3.3,��
2024/02/24,14:00,0.497,0.751,0.474,0.932,0.674,0.305,0.546,0.515,���쐼,2.9,��
2024/02/24,14:10,0.496,0.751,0.474,0.932,0.674,0.306,0.545,0.513,���쐼,1.8,��
2024/02/24,14:20,0.498,0.750,0.473,0.933,0.675,0.305,0.545,0.516,�k��,4.3,��
2024/02/24,14:30,0.497,0.752,0.474,0.935,0.674,0.306,0.545,0.517,�k��,4.0,��
2024/02/24,14:40,0.498,0.751,0.473,0.933,0.678,0.307,0.546,0.514,�k��,3.7,��
2024/02/24,14:50,0.496,0.751,0.474,0.934,0.676,0.305,0.546,0.514,�k��,5.3,��
2024/02/24,15:00,0.498,0.752,0.474,0.933,0.677,0.305,0.548,0.514,�k�k��,4.7,��
2024/02/24,15:10,0.498,0.752,0.474,0.934,0.676,0.305,0.546,0.515,�k�k��,5.6,��
2024/02/24,15:20,0.498,0.755,0.475,0.933,0.676,0.306,0.547,0.515,�k�k��,5.4,��
2024/02/24,15:30,0.498,0.752,0.475,0.934,0.675,0.306,0.546,0.516,�k�k��,5.1,��
2024/02/24,15:40,0.499,0.756,0.474,0.934,0.675,0.306,0.548,0.516,�k�k��,5.7,��
2024/02/24,15:50,0.498,0.755,0.475,0.935,0.675,0.305,0.546,0.515,�k�k��,4.7,��
2024/02/24,16:00,0.498,0.755,0.475,0.935,0.675,0.306,0.546,0.515,�k��,4.8,��
2024/02/24,16:10,0.499,0.754,0.475,0.932,0.676,0.305,0.547,0.515,�k,4.9,��
2024/02/24,16:20,0.499,0.755,0.474,0.932,0.677,0.305,0.550,0.514,�k�k��,5.2,��
2024/02/24,16:30,0.498,0.755,0.474,0.933,0.675,0.305,0.549,0.517,�k,3.7,��
2024/02/24,16:40,0.497,0.754,0.475,0.935,0.676,0.305,0.549,0.515,�k�k��,5.2,��
2024/02/24,16:50,0.499,0.756,0.473,0.934,0.677,0.305,0.548,0.514,�k,4.2,��
2024/02/24,17:00,0.498,0.754,0.475,0.936,0.675,0.306,0.549,0.512,�k�k��,4.8,��
2024/02/24,17:10,0.499,0.754,0.475,0.935,0.676,0.307,0.549,0.515,�k�k��,3.5,��
2024/02/24,17:20,0.498,0.753,0.474,0.933,0.675,0.306,0.550,0.512,�k�k��,5.5,��
2024/02/24,17:30,0.498,0.755,0.476,0.935,0.674,0.306,0.547,0.514,�k�k��,6.0,��
2024/02/24,17:40,0.498,0.754,0.476,0.934,0.676,0.305,0.548,0.514,�k�k��,5.2,��
2024/02/24,17:50,0.498,0.754,0.474,0.935,0.674,0.305,0.548,0.514,�k,4.9,��
2024/02/24,18:00,0.498,0.754,0.475,0.937,0.675,0.306,0.548,0.515,�k,4.1,��
2024/02/24,18:10,0.498,0.754,0.474,0.935,0.675,0.304,0.549,0.514,�k,5.2,��
2024/02/24,18:20,0.498,0.755,0.473,0.935,0.674,0.306,0.549,0.514,�k,5.1,��
2024/02/24,18:30,0.497,0.756,0.472,0.935,0.676,0.305,0.546,0.515,�k,5.1,��
2024/02/24,18:40,0.499,0.755,0.474,0.935,0.676,0.304,0.547,0.512,�k�k��,5.1,��
2024/02/24,18:50,0.498,0.756,0.474,0.935,0.675,0.303,0.548,0.514,�k�k��,5.8,��
2024/02/24,19:00,0.498,0.754,0.475,0.935,0.676,0.304,0.548,0.514,�k�k��,5.6,��
2024/02/24,19:10,0.497,0.754,0.473,0.933,0.676,0.305,0.548,0.514,�k�k��,6.1,��
2024/02/24,19:20,0.497,0.755,0.474,0.934,0.675,0.304,0.547,0.514,�k�k��,5.9,��
2024/02/24,19:30,0.498,0.754,0.474,0.934,0.675,0.305,0.547,0.514,�k�k��,6.3,��
2024/02/24,19:40,0.497,0.753,0.474,0.934,0.675,0.305,0.545,0.514,�k�k��,5.2,��
2024/02/24,19:50,0.498,0.754,0.474,0.933,0.674,0.305,0.547,0.512,�k�k��,5.9,��
2024/02/24,20:00,0.498,0.753,0.475,0.934,0.673,0.304,0.547,0.513,�k�k��,6.2,��
2024/02/24,20:10,0.497,0.755,0.474,0.932,0.675,0.304,0.547,0.514,�k�k��,6.9,��
2024/02/24,20:20,0.497,0.754,0.472,0.934,0.674,0.304,0.547,0.514,�k�k��,6.6,��
2024/02/24,20:30,0.498,0.754,0.473,0.934,0.675,0.304,0.546,0.514,�k�k��,6.1,��
2024/02/24,20:40,0.498,0.753,0.474,0.935,0.675,0.305,0.546,0.513,�k�k��,6.1,��
2024/02/24,20:50,0.496,0.755,0.474,0.935,0.675,0.306,0.547,0.516,�k�k��,5.7,��
2024/02/24,21:00,0.499,0.753,0.473,0.933,0.676,0.305,0.546,0.515,�k�k��,5.7,��
2024/02/24,21:10,0.496,0.754,0.473,0.933,0.676,0.304,0.546,0.514,�k�k��,5.7,��
2024/02/24,21:20,0.497,0.755,0.473,0.936,0.675,0.306,0.547,0.514,�k�k��,5.9,��
2024/02/24,21:30,0.499,0.754,0.474,0.934,0.676,0.305,0.548,0.513,�k�k��,6.2,��
2024/02/24,21:40,0.498,0.753,0.473,0.935,0.676,0.304,0.546,0.513,�k�k��,6.5,��
2024/02/24,21:50,0.500,0.752,0.475,0.936,0.675,0.306,0.547,0.513,�k��,5.0,��
2024/02/24,22:00,0.499,0.755,0.473,0.936,0.676,0.304,0.548,0.513,�k�k��,5.6,��
2024/02/24,22:10,0.499,0.754,0.474,0.935,0.674,0.306,0.548,0.513,�k��,5.5,��
2024/02/24,22:20,0.499,0.754,0.471,0.935,0.675,0.304,0.548,0.513,�k��,4.8,��
2024/02/24,22:30,0.498,0.755,0.473,0.935,0.676,0.305,0.546,0.513,�k��,5.2,��
2024/02/24,22:40,0.497,0.753,0.474,0.934,0.676,0.304,0.546,0.513,�k��,4.9,��
2024/02/24,22:50,0.498,0.754,0.475,0.937,0.675,0.304,0.548,0.515,�k��,4.7,��
2024/02/24,23:00,0.497,0.752,0.473,0.934,0.674,0.304,0.545,0.514,�k��,4.1,��
2024/02/24,23:10,0.497,0.755,0.473,0.935,0.676,0.305,0.547,0.514,�k��,4.7,��
2024/02/24,23:20,0.499,0.755,0.473,0.935,0.675,0.303,0.547,0.512,�k��,4.6,��
2024/02/24,23:30,0.498,0.754,0.473,0.936,0.674,0.306,0.547,0.514,�k��,3.9,��
2024/02/24,23:40,0.499,0.756,0.474,0.934,0.676,0.305,0.547,0.513,���k��,3.9,��
2024/02/24,23:50,0.499,0.756,0.474,0.936,0.676,0.305,0.547,0.514,�k��,4.1,��
